sat.trackr.live / text

‹ back to catalog

STARLINK-3927

NORAD 52569 · 2022-051AN

PAYLOAD ACTIVE UNKNOWN

§ Identity

Operator
Country
US
Launch date
2022-05-13
Launch site
AFWTR
Launch vehicle
Mass (kg)
RCS (m²)

Purposes: comms

External: N2YO · Heavens-Above · Gunter

§ Orbital elements

Epoch: 2026-05-25T03:23:03.353856Z

Period
95.44 min
Inclination
53.2135°
Eccentricity
0.0001226
Mean motion
15.08834989 rev/d
Perigee alt
538.9 km
Apogee alt
540.6 km
Semi-major
6,917.9 km
B*
2.7150e-6
RAAN
135.9190°
Arg perigee
78.3440°
Mean anomaly
281.7689°
Rev number
22,312

§ Raw data

STARLINK-39271 52569U 22051AN  26145.14101104 -.00000245  00000+0  27150-5 0  99982 52569  53.2135 135.9190 0001226  78.3440 281.7689 15.08834989223129

JSON: /api/v1/satellites/52569 · /tle

For live sub-satellite position, see the globe view (requires WebGL).

§ Visibility from observer

Set your observer location to see the next 7 days of passes ≥ 10°. The values pass through the URL so the page stays shareable.

No JS? Fill the form by hand. The geolocation button needs JavaScript.